Wetbulb
54.06 54.08 53.94 54.08 54.07 54.04 54.16 54.41 54.68 54.93 55.29 55.69 56.01 56.32 56.59 56.61 55.76 50.05 43.91 48.47 52.53 58.31 59.89 51.40 48.45 48.27 46.33 46.07 49.50 52.17 44.72 42.84 45.22 46.76 47.51 52.13 50.44 53.54 56.07 53.85 53.97 54.27 53.58 56.03 64.90
54.32 54.50 54.53 54.33 54.36 54.18 53.97 54.05 54.42 54.61 55.00 55.49 55.87 55.94 56.16 56.12 51.82 46.97 52.28 56.87 59.75 60.84 48.34 45.83 43.75 46.67 41.07 43.20 46.17 45.68 40.66 45.13 50.70 51.15 49.64 51.72 51.04 52.47 52.42 51.97 52.69 53.71 56.61 57.05 62.22
54.27 54.36 54.41 54.24 54.12 54.01 54.00 53.98 54.15 54.46 54.75 55.01 55.23 55.39 55.78 55.51 47.10 48.00 59.63 59.31 62.68 60.38 50.59 47.77 46.98 45.38 38.59 41.06 42.79 43.04 41.88 47.87 49.64 50.67 51.31 50.54 50.90 52.66 50.71 49.43 51.23 51.43 54.14 56.12 55.74
53.87 54.06 54.06 53.85 53.90 53.48 53.46 53.91 54.02 54.34 54.29 54.41 54.92 55.45 56.14 52.64 37.81 50.85 62.81 61.39 61.93 57.07 49.81 47.01 44.16 38.90 36.78 37.50 41.82 38.36 43.94 45.83 47.24 49.59 49.31 48.29 50.71 49.71 50.59 50.83 54.42 54.58 55.32 54.91 54.96
52.94 53.27 53.31 53.29 53.31 53.10 53.00 52.79 53.39 53.87 53.93 54.25 55.14 56.12 51.51 46.56 47.96 55.73 64.39 62.47 58.71 53.66 48.86 46.33 41.85 38.55 34.84 37.61 39.82 38.38 41.61 44.13 45.60 45.36 46.15 49.35 48.43 49.15 50.10 53.04 54.70 55.06 55.31 54.86 54.77
54.07 53.95 53.95 53.79 53.31 52.94 52.71 52.33 52.58 53.22 53.65 54.21 55.27 56.53 49.05 40.39 53.78 55.97 57.86 57.02 56.90 51.22 49.20 47.35 43.44 42.83 38.36 37.45 36.78 39.71 39.93 41.85 42.71 43.10 44.14 44.51 45.74 46.89 48.50 51.21 50.57 50.95 51.61 54.62 55.04
53.60 54.51 53.92 53.54 52.98 52.88 52.79 52.47 52.37 53.18 53.84 54.59 55.75 54.65 46.63 41.28 52.22 52.56 55.99 52.41 52.04 51.90 48.30 47.54 45.77 42.62 41.24 38.14 39.57 40.03 36.71 39.21 41.03 42.53 42.98 46.27 42.83 44.22 48.88 50.32 49.76 50.61 51.70 53.45 55.03
53.60 53.67 54.14 53.41 53.18 52.96 52.94 52.77 52.93 53.51 54.25 54.96 56.14 50.59 40.95 52.03 52.46 49.96 49.19 50.29 49.27 51.67 49.86 48.40 46.01 42.01 39.22 39.40 39.53 35.34 33.64 29.63 37.86 41.78 42.70 43.73 38.56 45.48 46.91 47.10 47.82 48.86 50.23 51.19 52.37
53.30 53.69 53.51 53.28 53.22 53.16 52.77 53.18 53.43 54.32 55.06 55.45 50.13 45.70 44.48 55.80 48.71 49.96 47.86 46.28 47.43 47.81 47.23 49.78 44.93 40.78 40.03 34.46 31.43 32.46 27.63 29.97 35.44 40.42 40.60 40.54 36.34 42.22 45.11 44.97 44.73 45.42 46.85 48.70 49.77
53.18 53.65 52.70 52.74 52.93 52.81 52.52 52.53 52.41 53.22 53.92 54.79 52.78 44.54 46.50 47.28 49.58 49.30 48.15 48.04 46.12 45.60 44.06 42.98 38.57 35.93 32.96 31.44 25.96 29.67 29.75 32.66 32.93 38.46 39.36 38.21 38.09 40.99 43.61 43.93 43.96 44.62 45.55 46.39 47.46
53.70 53.35 52.58 52.50 52.68 53.04 49.77 45.09 41.83 40.85 46.61 42.84 46.95 45.78 49.92 52.35 51.07 47.11 48.89 47.18 46.15 41.91 35.06 38.33 33.41 30.71 34.82 35.34 36.57 35.48 33.28 32.09 35.58 39.38 36.91 36.03 37.62 40.35 41.62 41.36 41.35 42.51 44.12 45.11 46.34
52.35 52.50 52.75 52.69 52.67 52.65 46.40 44.50 45.40 44.43 38.65 45.89 45.91 48.28 51.07 50.74 44.41 46.19 48.89 42.28 40.69 34.98 36.77 34.31 30.09 37.07 38.90 37.90 36.22 34.75 31.62 31.78 35.88 39.96 38.10 36.54 36.90 39.75 40.67 40.80 41.19 41.85 42.59 43.70 45.17
51.84 51.91 51.88 52.20 51.81 46.72 43.24 46.04 49.87 44.57 36.59 42.31 46.27 45.46 45.80 46.99 43.49 43.79 46.24 42.68 38.55 34.08 33.31 31.20 35.75 40.36 38.76 36.83 36.41 33.93 33.01 33.27 33.71 37.94 37.87 35.52 34.65 36.67 39.47 40.90 42.25 42.77 42.93 43.64 43.70
51.35 51.42 51.59 51.10 45.88 43.70 45.10 49.63 47.92 45.23 33.50 41.00 42.22 45.00 45.35 43.96 41.57 47.97 47.64 43.46 38.01 34.43 34.85 33.64 38.09 38.34 35.68 36.28 37.11 30.80 38.29 37.79 36.21 32.63 25.98 35.31 24.96 32.68 37.10 38.12 39.57 41.16 41.26 42.38 42.96
51.05 51.50 51.12 50.68 43.70 43.95 48.20 47.50 46.36 46.01 23.78 43.43 41.83 47.16 43.24 41.17 42.75 44.87 47.22 42.42 37.18 36.98 35.56 33.86 34.41 34.28 34.01 36.28 39.01 34.11 39.27 36.26 35.59 30.96 27.44 29.87 24.94 30.19 37.22 35.33 37.69 39.56 41.87 43.48 45.04
50.86 51.09 50.78 47.72 43.85 46.98 48.11 46.54 46.52 33.91 25.97 38.44 42.52 41.67 40.44 41.29 42.07 43.89 42.89 43.74 42.13 36.82 36.10 35.92 38.96 37.95 37.78 40.31 39.46 40.13 34.95 32.83 30.68 28.13 21.29 28.20 27.12 26.36 30.39 33.60 36.86 40.84 44.00 45.11 45.13
50.62 50.67 48.91 48.89 43.33 45.55 46.46 43.95 32.76 26.80 39.67 35.70 36.53 39.41 38.27 38.20 39.90 40.83 39.08 36.13 32.53 28.43 28.82 34.01 33.94 38.96 41.57 35.59 37.00 34.05 27.29 20.42 18.97 19.01 20.73 29.81 27.45 30.22 36.31 39.65 40.74 41.32 42.99 44.15 44.84
49.84 49.40 48.75 49.03 45.38 46.68 43.26 37.52 28.07 36.09 34.85 39.73 38.25 38.35 36.27 39.22 39.36 40.14 37.65 34.22 39.29 33.95 28.70 24.42 24.25 35.49 41.92 36.20 31.82 30.95 28.96 21.13 16.20 18.63 22.27 30.36 23.48 29.62 39.42 42.45 43.12 43.93 43.73 44.19 44.01
48.44 44.70 46.08 49.03 49.56 45.37 39.30 30.21 31.02 35.21 39.10 37.40 37.26 34.50 36.18 38.96 38.49 37.63 36.78 36.99 38.22 36.77 29.28 27.45 29.06 38.53 39.90 38.88 36.53 30.45 27.28 31.02 24.48 24.46 19.74 24.80 30.10 36.30 39.91 40.40 41.93 41.33 42.48 41.93 42.42
41.60 43.71 45.68 50.00 47.85 43.05 35.63 34.26 36.04 41.63 41.20 39.39 31.63 36.03 31.03 34.68 35.68 36.12 35.91 40.32 38.97 40.35 37.78 33.48 27.07 36.32 38.78 38.71 37.69 33.43 34.75 23.60 23.87 18.59 18.07 23.32 25.63 27.89 34.08 36.80 39.97 40.24 40.31 41.31 42.38
42.77 41.97 47.55 47.37 47.06 40.57 31.93 34.57 39.44 43.25 42.33 38.38 35.29 34.03 34.41 33.84 34.51 35.27 35.67 39.78 41.44 39.99 38.33 34.96 30.27 31.14 35.25 32.49 30.01 29.99 28.08 29.51 27.25 25.35 17.25 16.54 23.74 34.23 35.62 38.49 38.84 39.99 41.37 40.82 41.26
39.61 36.89 47.63 45.81 36.44 33.84 32.92 37.49 42.13 40.99 43.37 40.47 38.62 36.96 34.88 35.70 33.39 35.09 34.82 38.25 41.89 40.62 34.59 36.79 30.79 27.17 30.10 36.36 37.82 34.10 30.82 30.09 19.77 18.72 27.97 24.28 25.22 38.41 38.92 38.60 39.44 39.85 42.44 42.58 43.21
38.43 38.58 46.70 44.62 28.67 29.37 34.08 37.95 39.84 40.24 39.96 38.74 36.77 37.87 37.05 33.15 29.46 35.91 37.58 41.93 40.47 38.20 36.60 35.86 28.72 24.99 25.92 29.23 32.91 31.14 34.04 32.96 31.35 27.45 25.61 23.38 25.35 38.14 38.81 39.32 40.53 40.48 41.94 42.86 43.19
38.62 32.96 36.45 37.93 35.59 31.84 31.67 34.10 36.16 42.18 40.15 39.52 37.70 37.29 34.37 32.64 34.20 32.35 35.11 39.93 39.89 39.67 44.60 41.67 30.52 28.72 24.62 27.17 28.62 29.19 32.82 35.08 34.00 28.36 27.17 27.46 29.37 34.63 36.98 37.28 39.35 40.94 41.59 41.38 43.22
35.15 31.94 33.48 27.66 30.46 31.73 32.55 34.65 33.89 34.57 38.69 37.81 34.65 34.80 32.81 28.28 30.98 31.34 34.25 35.82 38.31 40.08 37.44 34.86 28.44 31.15 32.59 34.09 34.55 33.55 33.34 34.24 32.67 33.43 29.98 31.08 30.65 34.48 36.72 37.01 39.03 41.43 42.72 43.54 46.39
34.80 33.42 34.51 32.07 34.07 32.53 31.95 30.57 32.87 35.21 35.02 33.98 31.78 34.20 33.37 29.11 30.95 29.86 32.25 30.89 32.12 34.92 32.43 33.50 27.31 31.52 30.50 33.70 33.57 31.30 33.85 34.45 34.18 34.37 34.45 34.13 32.69 38.76 39.80 40.22 40.18 40.32 41.53 42.22 46.17
37.83 37.25 35.87 31.88 31.15 29.66 28.67 31.80 32.82 34.66 36.30 38.05 34.44 32.72 32.17 34.19 37.10 37.58 37.97 37.36 35.13 32.81 30.81 30.41 28.13 27.34 25.33 32.42 32.09 27.60 32.31 34.20 35.44 37.25 36.13 30.98 35.54 38.84 38.33 38.62 38.85 39.96 40.79 41.95 44.55
MSLP
1019.19 1018.72 1018.31 1017.91 1017.54 1017.18 1016.84 1016.48 1016.16 1015.84 1015.54 1015.19 1014.79 1014.40 1014.03 1013.73 1013.23 1012.85 1012.03 1009.82 1009.66 1009.51 1009.71 1009.57 1009.44 1009.20 1008.97 1008.84 1008.85 1008.58 1009.45 1009.09 1008.27 1007.47 1006.59 1005.48 1005.54 1004.71 1004.29 1004.21 1003.76 1003.15 1003.12 1002.36 1001.77
1019.19 1018.65 1018.18 1017.77 1017.35 1016.93 1016.56 1016.24 1015.92 1015.60 1015.32 1014.99 1014.60 1014.20 1013.99 1013.61 1013.03 1012.13 1009.46 1009.24 1009.32 1009.56 1009.74 1009.67 1009.67 1009.35 1009.37 1008.92 1008.87 1008.79 1008.66 1008.06 1007.36 1007.14 1006.72 1005.77 1005.75 1005.17 1004.60 1004.14 1003.43 1003.35 1002.88 1002.72 1002.47
1019.03 1018.52 1018.05 1017.58 1017.15 1016.74 1016.34 1016.00 1015.71 1015.44 1015.15 1014.81 1014.38 1014.05 1013.81 1013.57 1012.84 1009.75 1008.48 1009.02 1009.16 1009.60 1009.81 1009.68 1009.84 1009.71 1009.52 1009.14 1008.91 1008.51 1008.15 1007.70 1007.13 1007.05 1006.92 1005.65 1005.23 1005.33 1005.02 1003.63 1003.82 1003.60 1003.07 1002.68 1002.79
1018.87 1018.36 1017.87 1017.40 1016.94 1016.53 1016.16 1015.80 1015.46 1015.17 1014.89 1014.62 1014.20 1013.86 1013.50 1013.39 1011.66 1008.66 1008.38 1008.80 1009.29 1009.71 1009.97 1009.74 1009.93 1009.72 1009.49 1009.22 1008.84 1008.77 1008.10 1007.72 1007.30 1007.17 1007.19 1006.54 1005.48 1004.91 1004.59 1003.10 1003.62 1003.55 1003.23 1002.96 1002.94
1018.77 1018.21 1017.65 1017.14 1016.66 1016.27 1015.88 1015.58 1015.28 1014.97 1014.66 1014.36 1014.02 1013.67 1013.40 1012.69 1010.33 1008.00 1008.28 1008.82 1009.35 1009.84 1010.01 1009.73 1009.80 1009.67 1009.57 1009.21 1008.98 1008.65 1008.29 1007.84 1007.52 1007.40 1007.11 1006.63 1005.73 1005.40 1003.36 1002.99 1003.56 1003.20 1002.93 1002.79 1002.95
1018.51 1017.96 1017.41 1016.81 1016.28 1015.78 1015.43 1015.20 1014.94 1014.62 1014.37 1014.08 1013.83 1013.59 1013.32 1011.54 1008.16 1008.04 1008.47 1009.03 1009.18 1009.59 1009.65 1009.46 1009.28 1009.06 1009.29 1009.18 1009.29 1008.90 1008.67 1008.27 1007.74 1007.39 1006.92 1006.55 1005.70 1005.58 1002.24 1003.72 1003.38 1002.89 1002.65 1002.78 1002.66
1018.17 1017.62 1017.07 1016.45 1015.87 1015.30 1014.84 1014.51 1014.39 1014.12 1013.88 1013.68 1013.53 1013.44 1012.90 1010.03 1008.43 1008.43 1008.42 1008.64 1008.65 1008.89 1009.06 1008.64 1008.57 1008.92 1009.36 1009.46 1009.36 1009.10 1009.03 1008.55 1007.90 1007.12 1006.54 1006.41 1005.46 1004.00 1003.57 1003.35 1002.99 1002.91 1002.43 1002.60 1002.42
1017.76 1017.23 1016.71 1016.10 1015.50 1014.83 1014.24 1013.82 1013.61 1013.46 1013.34 1013.33 1013.32 1013.27 1011.62 1008.84 1008.50 1008.41 1008.32 1008.37 1008.08 1008.30 1008.38 1008.02 1008.20 1008.71 1009.10 1009.44 1009.61 1009.79 1009.95 1009.36 1007.67 1006.95 1006.28 1006.05 1003.76 1004.55 1004.46 1004.09 1003.40 1002.98 1003.05 1002.61 1002.46
1017.57 1016.86 1016.22 1015.67 1015.01 1014.38 1013.67 1013.12 1012.83 1012.63 1012.74 1012.98 1013.25 1012.97 1010.64 1008.42 1008.25 1007.61 1007.74 1007.80 1007.67 1007.85 1008.05 1007.85 1008.29 1009.06 1009.47 1010.14 1010.69 1010.60 1010.57 1009.79 1008.46 1007.38 1006.81 1006.41 1005.53 1004.98 1004.80 1004.62 1004.14 1003.60 1002.76 1003.01 1002.62
1017.36 1016.63 1015.96 1015.28 1014.58 1013.86 1013.09 1012.37 1012.11 1012.31 1012.57 1012.78 1012.54 1012.64 1010.00 1008.75 1008.01 1007.53 1007.50 1007.50 1007.80 1007.94 1008.10 1008.33 1009.13 1009.69 1010.58 1011.05 1011.16 1011.00 1010.65 1009.88 1009.20 1008.25 1007.61 1006.65 1005.97 1006.07 1005.58 1005.18 1004.76 1004.17 1003.58 1003.05 1002.25
1017.17 1016.41 1015.70 1014.99 1014.26 1013.57 1012.97 1012.20 1012.50 1012.36 1012.09 1011.55 1011.21 1010.77 1009.63 1008.63 1007.75 1007.50 1007.36 1007.56 1007.94 1008.57 1009.17 1009.35 1009.85 1010.29 1010.19 1010.40 1010.30 1010.39 1010.36 1010.09 1009.41 1008.84 1008.42 1007.76 1006.73 1006.26 1005.88 1005.43 1005.16 1004.59 1004.17 1003.52 1003.27
1016.97 1016.24 1015.39 1014.63 1013.92 1013.28 1013.34 1012.93 1012.23 1012.18 1011.49 1010.28 1010.04 1009.88 1009.19 1009.14 1008.77 1007.57 1007.22 1007.90 1008.32 1009.01 1009.45 1010.07 1010.13 1009.81 1009.77 1009.91 1010.18 1010.30 1010.33 1010.43 1009.99 1009.35 1008.89 1008.17 1006.14 1006.12 1005.92 1005.58 1005.30 1004.94 1004.47 1004.08 1003.33
1016.75 1016.02 1015.14 1014.21 1013.50 1013.29 1013.24 1012.50 1011.73 1011.82 1011.79 1009.97 1009.24 1008.91 1008.43 1008.66 1008.39 1007.54 1007.44 1007.83 1008.49 1009.18 1009.66 1010.12 1009.74 1009.43 1009.58 1009.69 1009.85 1010.16 1010.45 1010.60 1010.64 1009.97 1009.32 1008.68 1006.19 1005.94 1005.80 1005.55 1005.23 1004.90 1004.57 1004.21 1003.83
1016.50 1015.72 1014.98 1014.11 1013.49 1013.44 1012.62 1011.74 1011.49 1011.68 1011.53 1009.87 1008.68 1007.76 1007.84 1007.90 1007.82 1007.10 1007.24 1008.01 1008.64 1009.18 1009.52 1009.80 1009.26 1009.28 1009.38 1009.63 1009.93 1010.15 1010.45 1010.77 1010.91 1011.09 1011.09 1010.27 1007.42 1007.00 1005.99 1005.38 1005.27 1004.91 1004.76 1004.43 1003.94
1016.15 1015.37 1014.76 1014.45 1014.19 1013.33 1012.07 1011.62 1011.30 1011.61 1010.96 1009.17 1008.12 1007.21 1007.53 1007.99 1007.65 1006.99 1006.96 1007.70 1008.44 1008.90 1009.61 1009.64 1009.28 1009.35 1009.35 1009.48 1009.78 1010.27 1010.45 1011.10 1011.47 1011.81 1011.89 1011.32 1010.49 1006.13 1006.33 1005.96 1005.00 1004.53 1004.84 1004.86 1004.66
1015.60 1014.86 1014.37 1014.19 1014.13 1012.61 1011.95 1011.54 1011.41 1012.02 1010.78 1009.16 1008.30 1007.86 1007.99 1007.97 1007.61 1007.26 1007.39 1007.62 1008.21 1009.06 1009.49 1009.42 1009.16 1009.16 1009.20 1009.44 1009.90 1010.46 1011.18 1011.97 1012.42 1012.85 1012.73 1011.75 1011.37 1007.24 1006.70 1006.39 1006.01 1005.51 1004.97 1004.64 1004.42
1014.93 1014.07 1013.86 1013.50 1012.93 1012.19 1011.86 1011.98 1012.38 1011.79 1010.45 1010.08 1009.36 1008.81 1008.67 1008.48 1008.05 1007.74 1007.79 1008.34 1009.20 1009.65 1009.96 1009.82 1009.58 1009.30 1009.40 1009.95 1010.42 1011.24 1012.24 1013.49 1013.94 1014.14 1013.24 1012.08 1011.41 1008.11 1007.15 1006.41 1006.15 1005.72 1005.28 1004.75 1004.27
1014.37 1013.71 1013.56 1012.90 1012.26 1012.29 1012.41 1012.84 1012.82 1012.02 1011.16 1010.44 1009.95 1009.37 1009.22 1009.26 1008.98 1008.67 1008.39 1009.18 1009.57 1009.98 1010.41 1010.66 1010.50 1009.89 1009.93 1010.32 1010.92 1011.61 1012.76 1014.29 1014.46 1014.39 1013.52 1012.37 1010.30 1007.93 1006.90 1006.07 1005.73 1005.60 1005.21 1004.66 1004.02
1014.16 1013.75 1013.59 1012.50 1012.24 1012.47 1013.25 1013.49 1013.12 1012.29 1011.42 1010.69 1010.17 1009.82 1009.67 1009.81 1009.96 1009.76 1009.58 1009.62 1010.03 1010.42 1010.94 1011.32 1011.03 1010.31 1010.13 1010.30 1010.94 1011.77 1012.82 1013.28 1014.29 1014.36 1013.85 1011.86 1009.55 1007.39 1005.95 1005.79 1005.45 1005.24 1005.08 1004.74 1004.02
1015.37 1014.78 1013.43 1012.31 1012.30 1012.92 1013.77 1013.78 1012.92 1011.99 1011.26 1010.64 1010.62 1010.48 1010.50 1010.57 1010.59 1010.49 1010.54 1010.30 1010.49 1010.63 1010.75 1011.59 1011.68 1010.92 1010.53 1010.54 1010.69 1011.31 1012.23 1013.55 1014.66 1014.87 1013.87 1011.30 1009.72 1007.47 1006.06 1005.43 1005.09 1004.72 1004.41 1003.94 1003.47
1015.63 1015.10 1013.17 1012.56 1012.62 1013.87 1014.56 1014.10 1012.84 1011.84 1011.28 1011.01 1010.87 1011.02 1011.06 1011.11 1011.07 1010.78 1010.73 1010.42 1010.64 1010.82 1011.03 1011.67 1012.29 1012.01 1011.42 1011.08 1011.11 1011.85 1012.35 1013.46 1014.30 1014.48 1013.75 1011.80 1008.73 1006.47 1005.82 1005.17 1004.93 1004.38 1003.85 1003.54 1003.20
1016.74 1015.92 1013.58 1012.86 1014.04 1015.36 1015.25 1014.22 1013.01 1011.97 1011.35 1010.95 1010.94 1011.22 1011.36 1011.42 1011.36 1011.10 1010.65 1010.36 1010.30 1010.74 1011.40 1011.94 1012.57 1012.89 1012.14 1010.99 1011.20 1011.61 1012.31 1013.10 1013.99 1013.87 1013.15 1011.86 1008.05 1006.16 1005.27 1005.09 1004.85 1004.01 1003.21 1002.84 1002.57
1018.26 1016.79 1014.14 1013.83 1015.46 1016.13 1015.49 1014.54 1013.44 1012.43 1011.91 1011.62 1011.59 1011.81 1012.02 1012.10 1012.10 1011.47 1010.92 1010.46 1010.75 1010.99 1011.47 1012.03 1012.92 1013.23 1012.20 1011.65 1011.40 1011.78 1012.32 1012.49 1012.74 1012.95 1011.73 1011.15 1006.87 1005.66 1005.30 1004.84 1004.26 1003.64 1003.20 1002.55 1002.52
1018.61 1018.16 1016.66 1016.31 1016.85 1016.97 1016.64 1015.27 1014.06 1012.88 1012.50 1012.38 1012.30 1012.35 1012.71 1012.75 1012.52 1012.20 1011.66 1011.05 1010.95 1011.14 1011.32 1011.84 1012.71 1013.13 1012.73 1012.02 1011.91 1011.85 1011.50 1011.66 1011.92 1011.42 1010.09 1008.65 1006.84 1006.00 1005.59 1004.93 1004.47 1004.09 1003.33 1002.65 1001.95
1019.21 1019.76 1019.58 1018.54 1018.13 1018.08 1017.47 1016.03 1015.02 1014.22 1013.33 1012.99 1012.90 1013.07 1013.33 1013.46 1013.10 1012.65 1012.13 1011.70 1011.44 1011.37 1011.60 1011.87 1012.66 1012.85 1012.37 1011.85 1011.61 1011.05 1010.40 1010.05 1010.03 1009.35 1009.12 1007.36 1007.04 1005.64 1005.32 1005.19 1004.94 1004.60 1003.59 1002.76 1001.80
1020.51 1020.69 1020.18 1019.64 1018.92 1018.40 1017.56 1016.78 1015.95 1015.29 1014.83 1014.06 1014.03 1013.91 1013.74 1013.82 1013.40 1013.02 1012.80 1012.50 1012.12 1011.75 1011.87 1012.37 1012.58 1012.60 1011.97 1011.63 1010.87 1010.02 1008.81 1008.43 1007.89 1007.44 1007.08 1006.99 1006.19 1005.36 1005.37 1005.25 1004.91 1004.43 1003.64 1002.70 1001.93
1021.00 1020.94 1020.90 1020.14 1019.57 1019.00 1018.01 1017.44 1016.78 1016.37 1015.06 1014.60 1014.47 1014.24 1013.84 1013.33 1013.11 1012.63 1012.21 1011.87 1011.80 1011.88 1012.32 1012.76 1012.85 1012.98 1011.62 1010.94 1010.38 1009.01 1006.76 1006.91 1006.73 1006.50 1006.68 1006.48 1005.16 1005.27 1005.16 1005.15 1004.81 1003.99 1003.40 1002.37 1001.98
Wind_Speed
18 18 18 17 17 16 16 16 16 15 15 15 16 16 16 16 17 4 7 11 7 8 3 5 4 4 1 2 3 2 3 6 6 8 1 7 7 3 3 7 6 6 6 11 3
19 18 18 18 18 17 17 16 16 16 15 15 16 16 16 15 10 7 13 10 11 3 1 1 3 1 1 4 3 4 5 8 5 4 8 16 5 11 7 12 12 6 8 10 5
19 19 19 20 19 18 18 17 16 15 15 15 16 16 15 11 4 7 6 12 6 5 2 2 2 2 3 3 4 3 8 4 4 2 3 13 14 9 9 20 5 11 12 8 4
20 20 20 20 20 20 19 18 17 16 15 14 15 15 13 1 2 3 8 10 8 4 1 2 2 2 3 5 5 4 5 3 2 4 6 15 17 17 18 24 14 9 8 6 7
20 20 20 20 21 21 19 18 17 16 15 14 13 11 4 2 9 7 6 8 6 4 4 3 2 1 2 2 3 4 4 4 5 5 7 11 16 16 27 24 14 13 8 9 8
20 21 21 22 22 22 20 18 18 17 15 13 10 6 1 3 4 3 7 5 5 5 3 5 6 7 2 2 2 2 2 5 4 5 5 7 11 5 28 6 13 14 10 9 10
21 20 22 23 23 22 21 19 17 16 14 12 8 3 1 13 3 7 8 6 5 6 4 6 4 1 4 4 2 3 6 5 5 6 7 6 14 23 21 9 11 8 9 7 11
23 22 22 24 23 23 22 20 18 16 14 10 6 2 8 5 3 7 4 5 6 7 6 9 5 2 2 1 6 2 5 3 6 2 7 10 24 2 6 7 12 12 8 11 6
23 23 24 25 25 24 23 21 20 15 9 5 3 3 9 9 3 6 7 3 5 3 5 1 4 2 3 4 5 5 1 2 7 4 5 7 3 7 8 8 10 10 10 7 13
24 22 24 25 25 24 24 20 8 2 3 7 3 3 6 1 4 4 3 4 3 3 6 4 5 2 3 4 3 3 1 3 4 5 6 13 9 5 7 5 8 8 10 12 13
25 24 24 23 24 21 12 4 6 4 2 6 4 4 6 6 5 3 3 1 2 6 2 3 4 3 10 8 6 4 2 2 4 5 5 7 15 9 7 6 8 9 8 10 11
27 26 25 24 23 18 2 3 2 5 8 8 8 9 11 1 5 9 5 4 1 2 2 6 1 5 4 4 4 4 1 1 4 5 7 10 23 10 3 5 5 8 8 8 10
25 25 26 25 25 2 0 3 7 1 2 8 4 4 6 9 7 6 5 3 2 1 1 3 6 4 3 3 2 1 4 2 4 6 6 7 20 12 3 3 6 7 7 8 8
25 25 24 26 2 4 3 5 8 3 4 5 2 5 3 3 4 7 6 6 1 4 2 4 4 1 3 2 2 2 1 0 5 6 3 5 16 5 8 11 4 8 8 10 11
26 25 22 11 4 1 4 8 5 4 5 2 0 3 2 4 2 3 4 4 6 6 5 7 2 2 4 1 2 4 2 3 3 4 3 2 5 4 14 13 16 11 6 5 8
28 25 17 1 1 6 7 7 4 6 3 2 3 3 2 3 6 3 2 3 2 4 2 8 2 4 4 1 1 3 3 5 4 2 1 7 5 5 2 2 8 5 8 8 8
29 27 6 2 2 4 5 4 5 5 7 5 4 6 2 4 6 3 6 0 1 1 3 3 2 1 3 3 5 6 6 4 5 3 6 3 5 11 16 16 5 9 9 10 10
29 16 2 4 3 5 4 6 7 3 2 3 3 7 3 7 4 7 3 3 6 3 3 3 5 2 1 4 5 4 7 6 6 3 13 5 8 9 7 8 8 8 11 10 13
19 4 3 4 2 3 6 6 3 4 4 4 7 2 2 4 3 6 5 2 3 3 4 2 4 3 3 2 5 2 4 5 4 1 2 6 8 11 19 9 10 8 9 11 13
3 4 4 5 3 6 6 2 2 3 6 3 2 3 2 3 3 4 5 3 3 2 3 4 3 5 3 1 3 6 4 1 2 3 5 6 6 11 12 13 9 12 10 13 13
4 4 3 5 4 6 4 4 4 6 4 3 2 4 3 1 2 2 6 4 2 2 2 4 5 4 3 5 6 2 1 3 3 4 5 4 8 7 8 10 12 14 15 11 13
3 2 5 4 5 1 1 3 4 5 4 5 3 4 4 3 3 5 8 3 6 2 2 4 4 3 10 9 6 5 5 5 5 6 5 3 16 5 15 11 10 15 18 13 13
3 4 4 5 2 3 6 6 4 3 2 3 3 3 5 3 3 4 4 3 4 0 2 5 1 3 6 4 6 1 4 4 3 1 12 8 15 2 9 17 16 16 16 16 9
3 5 6 5 1 2 4 5 5 5 1 1 3 2 4 2 3 4 5 4 9 3 11 7 4 7 6 7 3 9 15 14 12 5 8 16 24 18 20 16 12 15 14 10 9
4 1 2 5 2 2 3 3 4 6 5 4 2 0 3 4 4 9 6 7 10 8 4 5 7 7 10 14 13 17 21 19 18 20 15 17 18 21 16 8 7 8 14 16 12
3 4 4 4 4 5 2 1 3 3 4 4 3 8 7 6 9 12 9 3 6 4 2 1 4 3 9 14 17 21 21 18 21 19 17 15 18 12 4 5 10 12 14 16 10
3 2 3 4 4 2 3 1 5 7 7 1 3 4 5 6 7 14 14 13 9 7 5 4 2 2 9 1 7 13 12 10 5 5 3 9 16 5 10 12 14 15 16 16 11
Wind_Direction
343 341 339 336 333 331 329 327 325 324 323 321 317 315 318 320 317 324 240 222 187 227 266 300 296 260 182 218 246 120 174 208 227 251 277 317 3 188 292 293 333 311 19 300 77
343 340 338 334 332 330 328 326 324 323 321 319 314 313 318 322 316 257 245 231 219 170 218 266 289 317 230 196 217 177 194 214 204 235 319 296 284 310 326 322 300 318 327 2 59
342 340 338 335 333 331 328 324 322 320 318 317 312 314 317 319 313 260 221 214 199 179 268 347 296 280 201 193 214 209 236 193 259 2 332 295 296 310 308 290 272 304 309 336 350
341 339 336 335 332 329 326 322 318 316 314 312 311 317 316 178 118 264 177 177 170 153 235 183 212 204 209 211 218 249 221 169 282 278 270 272 298 289 290 268 288 287 276 292 297
340 337 333 330 329 325 322 317 314 312 308 307 310 322 343 289 251 255 173 151 138 157 236 177 182 174 226 241 304 230 286 291 285 282 266 272 272 274 274 279 286 277 272 264 266
335 331 329 327 326 323 319 313 306 304 300 299 305 319 293 295 253 299 122 148 186 190 209 180 201 208 179 284 182 310 267 273 273 259 240 260 271 250 266 306 284 280 276 234 250
337 332 331 331 327 324 319 312 304 298 290 289 297 250 290 238 357 347 153 200 187 194 234 199 201 94 151 304 240 298 336 343 217 218 227 220 260 239 269 307 288 276 295 252 246
335 333 331 333 329 324 318 309 301 291 281 271 266 228 250 244 262 303 149 274 244 218 208 262 191 162 162 265 8 351 48 28 283 275 255 177 249 281 359 337 309 318 302 300 271
333 331 333 333 330 326 317 306 297 284 263 205 144 185 271 309 252 244 191 244 315 231 211 254 111 154 35 67 3 6 177 217 307 276 273 187 322 346 333 347 314 319 330 344 329
332 329 333 332 331 327 320 307 292 276 156 164 235 330 278 312 255 270 195 215 231 341 356 51 55 156 52 83 231 265 294 271 252 297 334 303 294 298 298 309 298 310 317 320 317
331 329 330 332 329 326 337 10 20 5 189 213 196 253 284 321 319 249 256 22 65 58 13 346 74 221 241 208 229 268 253 234 265 334 349 281 299 315 276 294 290 299 302 308 304
330 331 331 329 327 326 110 57 219 232 307 247 239 239 260 32 307 288 127 152 153 263 350 14 224 217 234 208 205 227 190 322 275 328 333 310 296 298 260 252 269 289 301 291 302
329 331 330 328 323 71 88 242 301 355 17 300 212 204 221 151 224 252 142 173 210 262 165 168 245 295 9 47 69 97 125 320 276 313 287 314 290 297 230 279 282 280 287 301 276
328 329 330 330 12 311 287 303 323 125 63 277 254 271 153 166 255 213 182 154 210 216 235 232 265 55 17 173 131 337 120 357 328 13 310 58 289 249 271 289 278 270 265 278 309
326 326 328 324 289 341 278 328 292 65 55 175 111 261 89 173 286 260 167 92 205 211 106 259 267 343 333 217 157 238 350 327 299 294 11 255 286 112 325 289 278 297 352 310 300
327 325 329 115 221 247 309 309 63 50 29 19 27 355 331 243 243 268 181 88 167 176 229 246 194 166 206 211 308 59 34 17 30 47 323 229 207 326 229 316 317 290 292 296 293
330 325 302 178 225 324 319 42 42 79 316 14 332 324 16 309 342 215 192 79 238 160 282 316 351 70 102 28 8 65 50 347 341 2 240 274 270 263 299 299 296 282 289 284 279
332 327 214 234 301 351 43 55 67 329 4 314 298 308 128 16 1 335 98 138 24 73 99 140 323 117 118 196 210 227 155 161 252 238 281 277 253 254 236 232 255 252 264 275 286
330 337 322 275 227 70 68 59 152 327 342 303 313 281 328 36 349 11 7 16 64 34 144 152 260 281 211 168 128 201 176 208 231 100 356 227 268 291 264 236 264 261 250 266 279
14 342 288 303 83 55 72 208 258 316 314 249 238 338 304 351 330 58 333 330 165 194 153 168 290 255 266 120 265 160 191 16 8 282 251 262 258 252 276 278 281 287 288 290 292
31 26 274 349 58 41 107 241 282 306 5 320 255 267 262 200 311 303 222 250 85 181 112 171 155 278 0 226 200 311 245 91 128 167 219 288 260 221 254 272 276 283 280 275 286
357 30 319 32 42 33 304 286 289 303 327 272 202 212 221 237 247 247 242 204 359 139 253 186 143 229 233 268 238 184 226 156 130 261 225 221 267 228 258 285 296 280 283 284 278
357 277 318 68 87 328 313 296 269 294 305 358 320 33 13 250 270 252 245 222 68 48 183 182 180 311 321 5 4 187 200 205 208 264 241 251 268 289 309 305 296 291 287 275 303
37 348 327 37 44 85 342 275 318 308 245 324 273 63 20 280 219 283 300 291 350 311 311 168 165 189 230 239 191 285 270 264 249 235 261 229 272 273 285 290 309 314 289 286 288
29 325 205 306 333 344 254 271 304 354 328 321 305 133 227 271 272 257 250 296 292 270 280 144 202 210 240 262 275 267 270 270 257 257 249 273 259 280 283 297 319 330 342 338 350
52 23 355 297 309 327 335 46 300 335 283 275 340 309 286 221 225 291 299 239 235 294 216 190 253 217 265 268 260 268 266 258 266 262 254 269 275 269 306 290 329 332 322 310 312
330 350 97 287 318 335 247 34 304 312 279 246 310 295 283 262 290 278 255 248 234 188 173 173 181 57 279 327 299 279 255 209 247 211 250 278 275 307 327 329 318 308 300 294 330